This is the latest recevied weather packets stored in our database for station/object N3AVN. If no packets are shown the sender has not sent any weather packets the latest 10 day(s).
| Time | Temp. | Humidity | Pressure | Rain* | Wind** | Luminosity | Snow |
|---|---|---|---|---|---|---|---|
| 1788139976 | 70° F | 98% | 762.2 mmHg | 0.73 in | - | 0 W/m² | - |
| 1788139671 | 70° F | 98% | 762.2 mmHg | 1.25 in | - | 0 W/m² | - |
| 1788139367 | 70° F | 97% | 762.4 mmHg | 0.76 in | - | 0 W/m² | - |
| 1788139066 | 71° F | 97% | 762.1 mmHg | 0.26 in | - | 0 W/m² | - |
| 1788138762 | 71° F | 96% | 762.1 mmHg | 0.12 in | - | 0 W/m² | - |
| 1788138457 | 71° F | 95% | 762 mmHg | 0.09 in | - | 0 W/m² | - |
| 1788138157 | 71° F | 95% | 761.8 mmHg | 0 in | - | 0 W/m² | - |
| 1788137852 | 71° F | 94% | 761.8 mmHg | 0 in | - | 0 W/m² | - |
| 1788137547 | 71° F | 94% | 761.9 mmHg | 0 in | - | 0 W/m² | - |
| 1788137243 | 71° F | 94% | 761.8 mmHg | 0 in | - | 0 W/m² | - |
| 1788136939 | 71° F | 94% | 761.9 mmHg | 0 in | - | 0 W/m² | - |
| 1788136629 | 71° F | 94% | 761.8 mmHg | 0 in | - | 0 W/m² | - |
| 1788136325 | 71° F | 94% | 761.8 mmHg | 0 in | - | 0 W/m² | - |
| 1788136024 | 71° F | 94% | 761.7 mmHg | 0 in | - | 0 W/m² | - |
| 1788135718 | 71° F | 94% | 761.8 mmHg | 0 in | - | 0 W/m² | - |
| 1788135415 | 71° F | 94% | 761.7 mmHg | 0 in | - | 0 W/m² | - |
| 1788135109 | 71° F | 93% | 761.7 mmHg | 0 in | - | 0 W/m² | - |
| 1788134806 | 71° F | 93% | 761.5 mmHg | 0 in | - | 0 W/m² | - |
| 1788134505 | 71° F | 93% | 761.5 mmHg | 0 in | - | 0 W/m² | - |
| 1788134204 | 71° F | 92% | 761.6 mmHg | 0 in | - | 0 W/m² | - |
| 1788133900 | 72° F | 92% | 761.5 mmHg | 0.02 in | - | 0 W/m² | - |
| 1788133594 | 72° F | 90% | 761.6 mmHg | 0.02 in | - | 0 W/m² | - |
| 1788133284 | 73° F | 89% | 761.5 mmHg | 0 in | - | 0 W/m² | - |
| 1788132979 | 73° F | 88% | 761.5 mmHg | 0 in | - | 0 W/m² | - |
| 1788132675 | 73° F | 87% | 761.7 mmHg | 0 in | - | 0 W/m² | - |
* Rain latest hour (hover to see other rain measurements)
** Current wind speed in m/s (hover to see current wind gust speed)